Meteo Giornale » Osservazioni meteo Gran Bretagna » Kirkwall
ore: 20:20 - Osservazioni Meteo Kirkwall
Lat. 58° 57' N Lon. 2° 54' W Alt. 21 metri s.l.m.
10 °C
Poco Nuvoloso
Temp. 24 Ore
10 °C
15 °C
Nord
5.5 Km/h
Dew point 8 °C
Umidità 87 %
Visibilità 10 Km
Il sole sorge alle ore 06:07
Il sole tramonta alle ore 20:16
| Data e Ora | Cielo e Fenomeni | T °C | DP °C | Um. % | Pres. hPa | Vis. km | Vento km/h | |
|---|---|---|---|---|---|---|---|---|
| Oggi h: 20:20 | Poco Nuvoloso | 10 | 8 | 87 | 1010 | 10 | N 5.5 | |
| Oggi h: 19:20 | Nuvoloso | 12 | 8 | 76 | 1009 | 10 | O/NO 16.7 | |
| Oggi h: 18:50 | Nuvoloso | 12 | 9 | 81 | 1009 | 10 | O 24 | |
| Oggi h: 18:20 | Nuvoloso | 13 | 9 | 76 | 1009 | 10 | O 24 | |
| Oggi h: 17:50 | Molto Nuvoloso | 13 | 9 | 76 | 1008 | 10 | O 27.8 | |
| Oggi h: 17:20 | Molto Nuvoloso | 14 | 10 | 76 | 1008 | 10 | O 27.8 | |
| Oggi h: 16:50 | Molto Nuvoloso | 13 | 11 | 87 | 1008 | 10 | O 25.9 | |
| Oggi h: 16:20 | Pioggia nelle vicinanze | 14 | 12 | 87 | 1007 | 10 | O 27.8 | |
| Oggi h: 15:50 | Molto Nuvoloso | 15 | 13 | 87 | 1007 | 10 | O 24 | |
| Oggi h: 15:20 | Molto Nuvoloso | 15 | 14 | 93 | 1007 | 10 | O 20.3 | |
| Oggi h: 14:50 | Molto Nuvoloso | 15 | 14 | 93 | 1006 | 10 | S/SO 13 | |
| Oggi h: 14:20 | Molto Nuvoloso | 15 | 14 | 93 | 1006 | 10 | S 11.1 | |
| Oggi h: 13:50 | Pioggia nelle vicinanze | 15 | 14 | 93 | 1006 | 10 | S 13 | |
| Oggi h: 13:20 | Pioggia nelle vicinanze | 15 | 14 | 93 | 1006 | 10 | S 14.8 | |
| Oggi h: 12:50 | Pioggia nelle vicinanze | 14 | 13 | 93 | 1006 | 10 | S 14.8 | |
| Oggi h: 12:20 | Pioggia nelle vicinanze | 14 | 13 | 93 | 1005 | 9 | S/SE 16.7 | |
| Oggi h: 11:50 | Pioggia nelle vicinanze | 14 | 13 | 93 | 1005 | 7 | S 16.7 | |
| Oggi h: 11:20 | Pioggia | 14 | 13 | 93 | 1005 | 3 | S/SE 14.8 | |
| Oggi h: 10:50 | Pioggia | 14 | 13 | 93 | 1005 | 8 | S/SE 16.7 | |
| Oggi h: 10:20 | Pioggia | 14 | 13 | 93 | 1005 | 6 | S/SE 14.8 | |
| Oggi h: 09:50 | Pioggia | 13 | 13 | 100 | 1005 | 4 | S/SE 13 | |
| Oggi h: 09:20 | Pioggia | 13 | 13 | 100 | 1004 | 4 | S/SE 13 | |
| Oggi h: 08:50 | Pioggia nelle vicinanze | 13 | 13 | 100 | 1004 | 5 | S/SE 11.1 | |
| Oggi h: 08:20 | Pioggia nelle vicinanze | 13 | 12 | 93 | 1004 | 4 | S/SE 11.1 | |
| Oggi h: 07:50 | Pioggia | 14 | 13 | 93 | 1004 | 4 | E/SE 13 | |
| Oggi h: 07:20 | Molto Nuvoloso | 13 | 13 | 100 | 1004 | 10 | E/SE 11.1 | |
| Oggi h: 06:50 | Molto Nuvoloso | 13 | 12 | 93 | 1004 | 10 | E/SE 11.1 | |
| Oggi h: 06:20 | Nuvoloso | 13 | 13 | 100 | 1004 | 10 | E/SE 11.1 | |
| Oggi h: 05:50 | Molto Nuvoloso | 13 | 13 | 100 | 1004 | 10 | E 13 | |
| Oggi h: 05:20 | Molto Nuvoloso | 13 | 13 | 100 | 1004 | 10 | E/SE 9.3 | |
| Oggi h: 04:50 | Molto Nuvoloso | 13 | 12 | 93 | 1004 | 10 | E/SE 11.1 | |
| Oggi h: 04:20 | Coperto | 13 | 12 | 93 | 1004 | 10 | E/SE 13 | |
| Oggi h: 03:50 | Coperto | 13 | 12 | 93 | 1004 | 10 | E/SE 11.1 | |
| Oggi h: 03:20 | Coperto | 13 | 12 | 93 | 1004 | 10 | E 9.3 | |
| Oggi h: 02:50 | Coperto | 13 | 12 | 93 | 1004 | 10 | E 11.1 | |
| Oggi h: 02:20 | Coperto | 13 | 12 | 93 | 1004 | 10 | E 11.1 | |
| Oggi h: 01:50 | Coperto | 13 | 12 | 93 | 1004 | 10 | E/SE 11.1 | |
| Oggi h: 01:20 | Coperto | 13 | 12 | 93 | 1004 | 10 | E 11.1 | |
| Oggi h: 00:50 | Molto Nuvoloso | 13 | 12 | 93 | 1005 | 10 | E/SE 14.8 | |
| Oggi h: 00:20 | Coperto | 13 | 12 | 93 | 1005 | 10 | E/SE 11.1 | |
| Ieri h: 23:50 | Coperto | 13 | 12 | 93 | 1005 | 10 | E 13 | |
| Ieri h: 23:20 | Coperto | 13 | 12 | 93 | 1005 | 10 | E 13 | |
| Ieri h: 22:50 | Coperto | 13 | 12 | 93 | 1005 | 10 | E 13 | |
| Ieri h: 22:20 | Coperto | 13 | 12 | 93 | 1005 | 10 | E/SE 13 | |
| Ieri h: 21:50 | Molto Nuvoloso | 13 | 12 | 93 | 1005 | 10 | E 13 | |
| Ieri h: 21:20 | Coperto | 13 | 12 | 93 | 1005 | 10 | E/SE 14.8 | |
| Ieri h: 20:50 | Coperto | 13 | 12 | 93 | 1005 | 10 | E 14.8 | |



